Location: Albuquerque Trailhead
(34.7934°N, 106.3736°W)
Time: 05:32:30
(UTC+00:00)

Okean 2 - Pass Details

Date: 20 June 2021
Orbit: 560 x 575 km, 82.5° (Epoch: 29 July)

Event Time Altitude Azimuth Distance (km) Brightness Sun altitude
Rises 03:04:00 0° 184° (S) 2,743 6.6 -8.1°
Reaches altitude 10° 03:06:10 10° 184° (S) 1,849 5.7 -8.5°
Maximum altitude 03:10:15 87° 95° (E) 568 3.3 -9.1°
Drops below altitude 10° 03:14:20 10° 7° (N) 1,856 6.4 -9.8°
Sets 03:16:31 0° 7° (N) 2,755 7.3 -10.2°
